Regional Weather Roundup
Issued by NWS Albany, NY

Home | Current Version | Previous Version | Text Only | Print | Product List | Glossary On
Versions: 1 2 3 4 5 6 7 8 9 10 11 12 13 14 15 16 17 18 19 20 21 22 23 24 25 26 27
000
ASUS41 KALY 271710
RWRALY

NEW YORK STATE HOURLY WEATHER ROUNDUP
NATIONAL WEATHER SERVICE ALBANY NY
100 PM EDT SAT AUG 27 2016

NOTE: "FAIR" INDICATES FEW OR NO CLOUDS BELOW 12,000 FEET WITH NO
SIGNIFICANT WEATHER AND/OR NO OBSTRUCTIONS TO VISIBILITY.

NYZ032-033-038>043-046>054-057>066-NYZ062>081-082-084-271800-
EAST


CITY           SKY/WX    TMP DP  RH WIND       PRES   REMARKS
ALBANY         MOSUNNY   81  61  50 CALM      30.19F
GLENS FALLS    SUNNY     81  62  52 CALM      30.19F
POUGHKEEPSIE   MOSUNNY   84  64  50 W3        30.17F
NEWBURGH       SUNNY     82  64  54 SE6       30.21F
MONTGOMERY     SUNNY     83  64  52 VRB3      30.20S
WHITE PLAINS   MOSUNNY   83  61  47 SE10      30.20S
ISLIP          PTSUNNY   86  59  39 SE10G18   30.17F
NEW YORK CITY  MOSUNNY   87  62  43 NE10      30.18S
CENTRAL PARK     N/A     88  57  35 MISG        N/A
$$

NYZ005>009-017-018-044>046-055-056-271800-
CENTRAL


CITY           SKY/WX    TMP DP  RH WIND       PRES   REMARKS
FULTON         MOSUNNY   78  63  59 CALM      30.20F
SYRACUSE       PTSUNNY   81  63  54 VRB7      30.19F
ROME           SUNNY     78  66  66 NW5       30.21F
ELMIRA         SUNNY     82  62  50 CALM      30.20F
BINGHAMTON     SUNNY     77  62  59 W6        30.24F
MONTICELLO     SUNNY     81  61  50 CALM      30.25F
$$

NYZ026>034-041>043-087-271800-
NORTH


CITY           SKY/WX    TMP DP  RH WIND       PRES   REMARKS
WATERTOWN      SUNNY     78  59  51 SW8       30.19F
FORT DRUM      NOT AVBL
MASSENA        SUNNY     77  59  53 NE9       30.22F
SARANAC LAKE   CLOUDY    75  56  51 NE3       30.23S
PLATTSBURGH    SUNNY     75  60  59 NE10      30.21S
$$

NYZ001>004-010>016-019>021-085-271800-
WEST


CITY           SKY/WX    TMP DP  RH WIND       PRES   REMARKS
NIAGARA FALLS  PTSUNNY   82  58  43 VRB7      30.18F
BUFFALO        MOSUNNY   81  59  47 E6        30.18F
DUNKIRK        SUNNY     83  62  49 SE8       30.17F
JAMESTOWN      SUNNY     77  61  57 SE5       30.23S
WELLSVILLE     SUNNY     79  59  50 SE6       30.27F
ROCHESTER      MOSUNNY   80  60  50 CALM      30.20F
PENN YAN       SUNNY     79  61  53 SW5       30.22F
$$

             KEY
       WCI = WIND CHILL INDEX
       VSB = VISIBILITY
       HX  = HEAT INDEX
$$




USA.gov is the U.S. government's official web portal to all federal, state and local government web resources and services.